Date,TemperatureHighF,TemperatureAvgF,TemperatureLowF,DewpointHighF,DewpointAvgF,DewpointLowF,HumidityHigh,HumidityAvg,HumidityLow,PressureMaxIn,PressureMinIn,WindSpeedMaxMPH,WindSpeedAvgMPH,GustSpeedMaxMPH,PrecipitationSumIn
2014-1-1,48.0,32.8,21.6,32.1,25.0,18.6,89,74,52,30.03,29.91,9,3,0,0.00
2014-1-2,23.9,15.6,4.3,18.6,9.9,-0.2,88,78,60,30.37,29.94,14,5,0,0.00
2014-1-3,25.3,13.4,-4.0,15.7,6.9,-7.8,88,75,62,30.39,29.89,11,4,0,0.00
2014-1-4,46.2,34.0,23.9,32.1,23.4,14.9,85,65,50,29.88,29.77,8,4,0,0.04
2014-1-5,32.5,15.5,-0.8,28.8,11.5,-8.5,90,84,69,30.19,29.75,19,7,0,0.00
2014-1-6,1.2,-5.3,-10.7,-9.2,-13.2,-17.3,80,68,55,30.39,30.19,16,5,0,0.00
2014-1-7,19.4,7.4,-9.4,10.9,-0.4,-14.1,82,70,55,30.35,30.08,10,4,0,0.00
2014-1-8,30.7,20.8,15.1,15.4,12.3,9.4,80,70,52,30.35,30.12,9,3,0,0.00
2014-1-9,32.9,24.1,17.1,29.5,20.3,10.6,92,86,75,30.33,30.03,7,4,0,0.00
2014-1-10,42.6,37.1,31.6,41.0,35.3,29.5,94,93,89,30.04,29.41,14,5,0,0.74
2014-1-11,48.7,38.8,28.2,40.5,33.5,25.1,94,82,59,29.80,29.39,9,4,0,0.01
2014-1-12,53.8,40.3,25.3,37.8,32.3,23.0,93,75,54,29.83,29.54,13,4,0,0.00
2014-1-13,57.0,44.7,26.4,39.4,34.4,23.1,87,68,48,29.75,29.48,11,3,0,0.00
2014-1-14,48.7,35.1,25.3,36.3,24.9,13.9,92,68,43,29.95,29.62,12,4,0,0.00
2014-1-15,31.5,24.3,17.6,17.7,14.1,11.6,77,65,49,30.09,29.82,9,4,0,0.00
2014-1-16,44.8,33.3,24.3,31.2,24.2,15.3,88,70,54,29.82,29.56,12,4,0,0.04
2014-1-17,24.1,15.3,10.8,14.3,7.9,3.9,85,72,60,29.99,29.73,12,4,0,0.00
2014-1-18,39.9,27.1,10.9,33.0,20.7,6.5,88,77,53,29.95,29.53,13,4,0,0.04
2014-1-19,49.5,34.7,20.8,30.3,22.9,16.2,83,64,43,29.94,29.62,11,4,0,0.00
2014-1-20,52.0,40.1,29.5,35.0,29.9,25.3,86,67,49,29.83,29.63,7,2,0,0.00
2014-1-21,36.9,14.9,5.7,30.3,7.1,0.5,89,72,50,30.27,29.77,12,5,0,0.00
2014-1-22,31.5,19.4,8.2,19.2,10.2,-0.4,77,67,52,30.23,29.90,14,5,0,0.00
2014-1-23,15.3,4.8,-2.6,-0.3,-4.5,-8.2,81,65,48,30.62,30.25,12,4,0,0.00
2014-1-24,34.3,18.9,-3.1,14.7,2.4,-8.0,84,52,28,30.59,29.60,11,4,0,0.00
2014-1-25,41.4,33.1,19.2,31.2,15.7,-0.3,81,50,23,29.87,29.52,13,5,0,0.00
2014-1-26,57.6,40.4,21.6,35.9,24.0,8.5,68,52,42,29.91,29.44,19,5,0,0.00
2014-1-27,21.0,11.4,3.2,1.0,-4.6,-7.8,66,48,36,30.40,29.93,14,5,0,0.00
2014-1-28,20.5,7.7,-1.7,-0.2,-4.1,-8.0,78,59,37,30.44,30.24,10,2,0,0.00
2014-1-29,35.6,20.3,3.7,10.1,4.2,-2.4,79,52,28,30.25,29.97,9,3,0,0.00
2014-1-30,44.1,32.9,21.4,16.6,13.3,10.2,64,46,26,29.97,29.63,11,4,0,0.00
2014-1-31,34.5,28.1,25.3,25.1,21.0,16.1,88,75,47,30.02,29.83,8,4,0,0.00
2014-2-1,34.3,30.6,26.1,32.5,28.5,23.3,93,92,89,29.98,29.62,8,3,0,0.82
2014-2-2,26.1,18.5,9.9,23.3,13.9,5.8,89,82,73,30.23,29.99,8,4,0,0.00
2014-2-3,33.8,18.3,4.1,16.6,9.4,-0.2,83,69,42,30.31,30.20,6,3,0,0.00
2014-2-4,25.3,22.6,19.8,21.9,18.8,16.4,90,85,77,30.22,29.81,12,5,0,0.00
2014-2-5,23.5,18.0,8.6,18.5,13.4,3.2,90,82,71,30.47,29.83,12,5,0,0.00
2014-2-6,17.4,5.7,-4.7,3.2,-2.7,-8.8,84,69,44,30.53,30.38,9,3,0,0.00
2014-2-7,26.8,8.7,-9.0,5.7,-1.1,-13.0,84,66,38,30.41,30.20,6,2,0,0.00
2014-2-8,31.6,21.9,13.6,21.0,15.3,6.0,85,76,63,30.21,30.01,7,3,0,0.00
2014-2-9,29.8,23.2,13.8,20.3,15.9,5.9,85,74,62,30.25,30.03,8,3,0,0.00
2014-2-10,20.5,9.1,0.9,5.7,-1.5,-5.4,75,63,39,30.39,30.26,8,4,0,0.00
2014-2-11,28.8,9.6,-6.0,2.8,-2.8,-10.5,81,60,30,30.45,30.23,5,2,0,0.00
2014-2-12,42.4,18.9,-0.9,15.7,4.8,-5.0,85,60,16,30.23,29.88,5,1,0,0.04
2014-2-13,50.9,30.6,8.6,29.6,19.7,5.5,89,67,39,29.90,29.56,11,2,0,0.00
2014-2-14,32.0,22.6,11.7,27.1,18.7,7.0,92,85,76,29.96,29.51,10,4,0,0.00
2014-2-15,27.7,18.5,2.7,20.8,12.0,-1.0,88,76,59,30.05,29.84,11,2,0,0.00
2014-2-16,36.3,27.9,21.2,24.9,20.8,17.4,86,75,62,30.14,29.84,8,4,0,0.00
2014-2-17,42.8,31.0,23.4,34.8,26.3,17.3,90,83,73,30.05,29.65,12,4,0,0.06
2014-2-18,60.6,44.5,27.1,34.2,29.5,23.8,90,59,36,29.91,29.60,9,2,0,0.01
2014-2-19,53.2,43.9,29.5,39.2,34.5,26.4,89,70,57,29.94,29.66,9,3,0,0.00
2014-2-20,68.7,49.6,35.2,59.0,42.5,28.4,93,77,54,29.64,29.11,22,6,0,0.16
2014-2-21,56.1,42.7,31.5,29.0,23.0,19.6,74,48,27,29.82,29.54,14,5,0,0.00
2014-2-22,63.3,42.4,28.8,36.9,27.7,20.9,86,59,26,29.95,29.77,11,3,0,0.00
2014-2-23,39.4,30.1,22.3,30.7,19.6,15.0,86,66,43,30.24,29.94,9,4,0,0.00
2014-2-24,38.1,27.9,19.4,19.4,15.7,12.8,79,61,37,30.29,30.11,8,3,0,0.00
2014-2-25,32.2,25.1,16.3,19.6,15.9,4.9,77,68,57,30.21,30.11,11,4,0,0.00
2014-2-26,28.8,18.4,7.2,10.1,2.5,-4.8,66,50,33,30.25,29.79,10,5,0,0.00
2014-2-27,30.6,22.0,14.7,14.9,4.6,-4.0,72,49,24,30.06,29.79,10,4,0,0.00
2014-2-28,45.3,30.9,14.4,21.8,14.3,4.5,70,52,34,30.00,29.80,11,5,0,0.00
2014-3-1,39.4,32.0,21.4,28.4,23.7,18.1,88,72,56,30.16,29.89,8,4,0,0.00
2014-3-2,21.4,12.1,4.3,18.4,7.1,-3.3,88,80,70,30.30,30.13,11,6,0,0.00
2014-3-3,27.5,13.2,0.5,9.1,1.8,-7.8,74,61,41,30.42,30.23,12,4,0,0.00
2014-3-4,40.6,26.5,10.2,19.0,13.3,6.1,84,59,36,30.22,30.01,8,3,0,0.10
2014-3-5,44.8,31.6,22.1,26.8,21.5,16.0,80,67,48,30.20,30.03,11,5,0,0.00
2014-3-6,50.7,34.0,21.0,28.2,23.0,17.9,88,67,33,30.19,29.94,9,3,0,0.00
2014-3-7,60.6,43.1,25.3,34.3,28.8,21.1,85,60,33,29.95,29.77,7,2,0,0.00
2014-3-8,39.4,36.6,33.1,33.5,31.6,29.7,87,82,71,30.20,29.84,9,3,0,0.00
2014-3-9,60.3,41.4,23.2,34.4,29.4,21.2,93,66,36,30.21,29.88,6,2,0,0.00
2014-3-10,79.7,56.1,40.6,42.6,37.2,30.7,84,54,21,29.87,29.56,7,3,0,0.00
2014-3-11,84.2,59.8,40.5,55.1,43.3,33.3,91,58,24,29.58,29.31,14,3,0,0.65
2014-3-12,46.2,36.7,28.9,37.5,29.5,22.0,94,76,51,30.03,29.35,17,7,0,0.51
2014-3-13,61.3,41.9,22.3,37.9,29.7,19.3,89,65,39,30.07,29.80,10,3,0,0.00
2014-3-14,68.0,53.9,41.7,38.6,32.7,28.2,68,46,29,29.88,29.67,14,4,0,0.00
2014-3-15,71.6,51.2,30.9,38.1,31.2,24.2,77,51,23,29.94,29.78,12,4,0,0.00
2014-3-16,43.3,32.7,24.8,34.2,20.5,14.7,75,61,47,30.00,29.84,22,10,0,0.00
2014-3-17,50.5,33.9,17.1,27.5,19.0,13.4,86,58,30,29.96,29.65,9,3,0,0.00
2014-3-18,59.5,46.2,33.1,42.4,36.2,27.0,89,69,50,29.68,29.45,18,6,0,0.00
2014-3-19,48.7,44.3,31.1,42.1,36.2,25.1,86,73,57,30.02,29.49,16,5,0,0.00
2014-3-20,71.6,48.2,25.5,36.7,29.6,22.1,92,56,23,30.02,29.79,9,2,0,0.00
2014-3-21,78.3,60.0,43.3,38.8,34.1,30.2,63,41,18,29.85,29.59,12,4,0,0.00
2014-3-22,51.1,40.5,33.3,36.9,28.5,20.2,76,63,46,30.21,29.87,9,5,0,0.00
2014-3-23,45.7,33.4,25.3,19.6,15.2,10.3,68,48,29,30.36,30.21,10,4,0,0.00
2014-3-24,45.0,32.9,20.7,26.2,18.6,12.8,79,58,33,30.27,30.04,8,2,0,0.00
2014-3-25,40.8,32.6,22.6,28.8,18.3,10.6,88,58,34,30.19,30.00,15,5,0,0.00
2014-3-26,51.8,36.2,16.2,26.9,17.9,10.9,82,50,27,30.23,29.89,15,4,0,0.00
2014-3-27,57.7,49.5,38.5,52.9,40.5,27.7,90,71,56,29.89,29.45,12,6,0,0.23
2014-3-28,55.4,44.5,38.1,51.0,37.2,33.3,88,76,62,30.02,29.53,12,4,0,0.01
2014-3-29,46.2,39.5,29.3,37.3,34.0,27.2,92,81,66,30.15,29.96,11,4,0,0.00
2014-3-30,65.1,46.3,26.1,42.1,34.8,24.9,96,68,41,30.17,29.92,9,3,0,0.00
2014-3-31,66.9,56.8,46.6,46.2,41.8,37.3,75,59,40,29.93,29.62,14,6,0,0.00
2014-4-1,64.9,51.0,38.3,44.7,35.3,24.4,90,58,30,29.97,29.72,11,4,0,0.16
2014-4-2,51.8,47.3,43.0,51.0,45.8,40.8,97,95,83,29.98,29.72,14,5,0,2.66
2014-4-3,62.2,56.8,52.0,61.6,56.1,51.2,98,97,91,29.71,29.48,10,4,0,2.34
2014-4-4,56.1,45.6,39.9,55.5,38.2,31.4,99,76,61,30.02,29.42,18,7,0,0.02
2014-4-5,59.2,46.1,29.7,38.2,32.5,24.8,88,60,42,30.12,30.00,8,2,0,0.00
2014-4-6,63.1,47.9,33.3,40.2,35.3,30.4,93,64,38,30.02,29.74,10,2,0,0.00
2014-4-7,50.0,46.9,43.3,46.4,41.2,35.4,95,81,63,29.73,29.54,6,2,0,0.44
2014-4-8,65.5,53.0,42.6,47.0,40.1,31.6,96,65,32,29.88,29.61,14,4,0,0.03
2014-4-9,70.7,54.6,35.2,41.4,35.2,31.1,89,51,26,30.01,29.81,10,3,0,0.00
2014-4-10,82.9,64.5,52.3,52.5,43.9,35.9,62,48,31,29.84,29.65,13,5,0,0.00
2014-4-11,79.0,62.9,46.2,41.1,36.4,33.0,63,40,20,29.97,29.84,7,2,0,0.00
2014-4-12,83.1,68.9,56.5,62.2,54.6,36.3,89,62,42,29.89,29.58,10,5,0,0.00
2014-4-13,74.5,66.0,56.8,63.4,58.3,54.8,96,77,64,29.67,29.36,11,4,0,1.29
2014-4-14,57.4,42.9,31.8,55.7,40.0,27.8,94,90,77,29.98,29.31,13,5,0,0.05
2014-4-15,52.9,39.2,28.4,27.9,24.6,21.5,85,58,33,30.11,29.97,12,3,0,0.00
2014-4-16,59.4,47.3,36.0,33.9,29.5,25.8,67,52,33,30.14,29.93,14,6,0,0.00
2014-4-17,69.4,54.7,42.6,44.7,38.5,32.2,68,55,39,30.15,30.01,8,3,0,0.00
2014-4-18,76.3,58.6,40.6,49.7,42.9,37.0,87,59,36,30.21,30.08,9,2,0,0.00
2014-4-19,80.4,63.4,46.6,49.2,43.4,36.4,68,50,30,30.18,30.03,9,4,0,0.00
2014-4-20,85.1,69.5,48.0,50.8,45.7,39.9,74,45,25,30.09,29.90,9,3,0,0.00
2014-4-21,80.8,66.5,56.5,62.0,54.2,46.7,95,66,49,29.90,29.75,6,1,0,0.09
2014-4-22,72.9,60.1,45.5,59.2,43.8,34.3,97,59,29,29.92,29.77,13,4,0,0.00
2014-4-23,69.1,55.2,43.2,40.8,37.0,34.1,73,52,34,30.03,29.82,12,5,0,0.00
2014-4-24,80.8,62.7,51.4,56.4,45.8,35.9,98,57,35,29.82,29.46,14,6,0,0.64
2014-4-25,79.3,63.0,47.1,56.4,48.8,42.8,98,64,31,29.83,29.53,9,4,0,0.01
2014-4-26,83.1,66.5,48.9,54.5,48.5,42.5,80,55,28,29.79,29.65,6,2,0,0.00
2014-4-27,81.7,68.4,59.9,66.5,57.8,50.2,95,69,57,29.66,29.33,14,5,0,0.64
2014-4-28,77.2,64.6,55.4,64.8,58.7,50.4,97,82,64,29.46,29.20,17,5,0,1.31
2014-4-29,70.7,57.7,52.2,51.7,46.6,43.2,89,67,50,29.60,29.32,11,4,0,0.00
2014-4-30,59.7,50.0,44.2,46.4,41.2,37.4,92,72,52,29.79,29.60,10,4,0,0.00
2014-5-1,55.8,48.4,41.9,43.8,40.4,36.8,84,74,61,29.84,29.74,10,4,0,0.00
2014-5-2,65.1,53.8,46.6,46.3,43.0,40.6,84,68,48,29.83,29.70,8,3,0,0.00
2014-5-3,79.9,65.3,52.7,50.1,44.7,39.7,75,50,27,29.82,29.67,8,2,0,0.00
2014-5-4,82.6,67.0,49.3,57.0,50.7,45.0,86,58,40,29.86,29.70,11,4,0,0.00
2014-5-5,93.6,70.7,52.9,60.0,51.0,41.6,68,52,27,29.73,29.57,12,4,0,0.00
2014-5-6,88.3,72.2,55.0,65.5,56.7,47.3,76,59,46,29.70,29.53,14,5,0,0.00
2014-5-7,88.5,76.5,66.2,69.1,61.4,55.4,72,60,49,29.69,29.57,9,3,0,0.00
2014-5-8,94.3,77.0,67.3,69.7,64.6,58.8,93,67,41,29.77,29.69,7,3,0,0.34
2014-5-9,84.4,71.7,56.8,65.2,61.2,52.5,92,72,47,29.76,29.63,10,2,0,0.00
2014-5-10,90.3,72.1,53.8,64.2,55.1,50.0,92,60,29,29.85,29.68,10,3,0,0.63
2014-5-11,91.8,74.3,59.4,74.4,65.8,57.7,96,77,55,29.90,29.67,9,3,0,0.60
2014-5-12,91.2,78.3,67.1,75.3,69.8,64.7,94,76,60,29.80,29.67,7,3,0,0.26
2014-5-13,67.3,58.4,50.2,66.1,56.5,48.7,97,93,88,30.09,29.73,8,2,0,0.21
2014-5-14,55.0,49.8,45.1,48.8,46.2,43.5,96,88,73,30.08,29.88,7,2,0,0.46
2014-5-15,68.2,52.0,43.9,53.0,46.0,38.7,96,81,46,29.95,29.88,8,2,0,0.22
2014-5-16,61.0,48.7,39.7,45.3,39.9,36.5,90,73,50,30.02,29.90,9,3,0,0.00
2014-5-17,72.7,54.0,36.5,50.2,40.3,34.4,94,65,27,30.10,30.01,5,1,0,0.00
2014-5-18,73.6,58.5,40.6,47.3,42.2,38.4,94,59,33,30.17,30.04,9,2,0,0.01
2014-5-19,79.0,65.2,50.7,63.8,52.8,41.8,76,65,54,30.06,29.74,13,4,0,0.00
2014-5-20,96.8,79.3,62.8,73.9,65.6,57.9,85,65,46,29.83,29.67,6,2,0,0.00
2014-5-21,96.4,77.1,66.4,74.6,68.0,61.5,96,75,47,29.83,29.75,7,2,0,0.04
2014-5-22,86.9,73.0,63.7,69.7,61.4,54.4,96,69,40,30.03,29.84,8,2,0,0.00
2014-5-23,89.4,72.4,59.2,59.2,54.4,49.4,83,57,27,30.05,29.94,6,2,0,0.00
2014-5-24,85.6,70.0,54.9,59.9,55.4,51.4,90,63,36,30.06,29.94,6,2,0,0.00
2014-5-25,80.8,68.7,61.3,69.7,61.8,55.8,93,79,68,30.02,29.88,7,3,0,0.98
2014-5-26,92.7,75.0,63.5,75.9,67.9,61.7,94,80,58,29.94,29.85,11,1,0,0.13
2014-5-27,93.7,76.1,63.3,74.1,67.3,61.8,95,76,47,29.91,29.77,6,1,0,0.00
2014-5-28,92.3,77.2,63.0,73.5,67.3,61.2,94,74,48,29.85,29.76,6,1,0,0.00
2014-5-29,94.6,78.4,65.3,74.1,68.6,63.5,95,74,48,29.90,29.81,7,2,0,0.00
2014-5-30,89.8,76.8,67.6,74.8,69.2,65.5,93,78,59,29.96,29.88,9,3,0,0.00
2014-5-31,95.7,75.6,66.2,76.0,69.6,64.4,94,83,50,30.00,29.87,10,2,0,1.36
2014-6-1,93.2,80.3,69.6,79.7,71.6,67.5,95,76,56,29.93,29.75,6,2,0,0.10
2014-6-2,88.3,77.0,69.6,73.6,68.8,66.1,89,76,57,29.84,29.77,8,2,0,0.07
2014-6-3,98.4,82.1,66.7,78.5,70.9,64.6,94,72,43,29.89,29.70,6,2,0,0.00
2014-6-4,86.7,76.2,65.8,74.4,69.2,63.1,93,80,64,29.75,29.50,9,3,0,0.75
2014-6-5,78.3,68.1,62.1,66.7,61.5,58.2,92,80,66,29.87,29.66,9,3,0,0.00
2014-6-6,89.2,73.5,59.2,70.0,64.3,57.5,94,75,51,29.86,29.76,5,2,0,0.00
2014-6-7,78.3,69.1,62.1,71.5,64.8,60.0,94,87,72,29.84,29.56,11,3,0,0.54
2014-6-8,84.0,71.2,61.0,66.9,62.9,58.3,91,77,52,29.90,29.67,10,2,0,0.00
2014-6-9,81.1,69.3,60.8,67.3,60.7,56.6,93,76,54,29.83,29.63,16,4,0,0.76
2014-6-10,85.5,69.0,62.1,73.3,64.8,60.0,94,87,63,29.63,29.53,11,3,0,0.64
2014-6-11,75.0,65.9,60.1,67.7,62.6,58.4,94,90,76,29.69,29.56,6,2,0,0.03
2014-6-12,86.9,70.1,59.0,71.1,64.2,57.3,95,83,55,29.80,29.68,7,2,0,0.15
2014-6-13,83.1,68.4,54.9,61.9,55.0,49.2,94,67,33,29.95,29.80,7,2,0,0.01
2014-6-14,87.1,69.4,49.1,58.7,53.0,47.4,94,61,33,29.99,29.78,9,3,0,0.00
2014-6-15,94.1,76.3,63.5,74.1,64.9,55.1,82,69,45,29.88,29.70,11,3,0,0.00
2014-6-16,98.8,82.4,68.9,79.0,70.9,65.5,90,70,48,29.97,29.77,10,2,0,0.00
2014-6-17,100.8,85.4,72.5,78.0,72.5,67.9,87,67,47,29.88,29.75,7,2,0,0.00
2014-6-18,103.6,86.8,72.3,79.5,73.1,67.9,86,66,42,29.86,29.76,4,1,0,0.00
2014-6-19,103.5,86.2,71.1,76.6,72.2,67.4,89,65,38,29.93,29.80,6,1,0,0.00
2014-6-20,100.4,82.3,69.6,78.1,71.8,66.3,93,73,47,29.91,29.78,11,2,0,0.74
2014-6-21,95.5,78.4,66.7,78.7,70.7,63.9,94,80,51,29.87,29.70,10,2,0,0.79
2014-6-22,91.2,77.7,65.7,78.2,70.3,63.9,94,79,62,29.81,29.68,6,2,0,0.01
2014-6-23,95.0,79.5,70.0,75.6,70.6,64.6,93,76,52,29.75,29.66,9,2,0,0.10
2014-6-24,89.8,77.3,66.6,76.1,69.2,63.2,94,78,50,29.83,29.72,7,2,0,1.65
2014-6-25,97.0,80.4,65.1,74.1,67.3,62.9,94,68,37,29.91,29.82,5,1,0,0.00
2014-6-26,96.1,79.7,66.6,73.1,68.1,64.1,92,70,45,29.91,29.77,11,2,0,0.00
2014-6-27,92.8,77.5,68.2,77.2,70.3,62.5,92,79,57,29.87,29.78,7,3,0,0.46
2014-6-28,92.5,80.3,72.1,77.9,71.9,69.0,91,77,59,29.89,29.76,10,4,0,0.00
2014-6-29,91.4,80.9,73.4,78.4,72.7,67.6,84,76,65,29.89,29.76,5,2,0,0.00
2014-6-30,99.1,85.5,73.2,83.3,75.5,68.3,92,73,56,29.80,29.53,5,2,0,0.00
2014-7-1,93.9,81.4,70.0,73.2,68.2,61.6,83,66,35,29.76,29.60,7,2,0,0.00
2014-7-2,79.9,70.9,61.5,64.2,59.2,54.4,87,68,48,29.97,29.76,10,3,0,0.00
2014-7-3,86.0,69.8,56.8,62.2,57.9,53.7,92,68,38,30.09,29.96,7,2,0,0.00
2014-7-4,91.6,73.2,57.0,63.6,57.7,54.3,94,63,33,30.19,30.09,8,1,0,0.00
2014-7-5,88.3,74.2,58.1,64.0,59.1,53.5,86,61,37,30.15,29.91,6,2,0,0.00
2014-7-6,99.9,81.8,67.1,75.5,68.4,61.0,81,66,43,29.94,29.70,6,1,0,0.00
2014-7-7,95.9,79.6,70.7,81.5,72.1,66.0,93,79,57,29.76,29.57,11,2,0,1.38
2014-7-8,89.8,76.7,66.4,73.5,67.2,60.7,94,75,47,29.80,29.57,10,3,0,0.37
2014-7-9,89.1,75.0,61.3,72.0,63.6,57.4,94,71,41,29.94,29.80,6,2,0,0.00
2014-7-10,89.4,74.6,58.5,63.4,59.0,55.5,94,63,34,30.03,29.93,7,2,0,0.00
2014-7-11,94.5,79.8,63.0,73.5,65.4,56.0,79,63,44,30.05,29.91,7,3,0,0.00
2014-7-12,104.0,85.7,75.4,79.1,73.3,69.7,85,68,42,29.97,29.82,5,1,0,0.00
2014-7-13,96.6,83.5,73.6,77.5,72.8,69.1,88,71,52,29.87,29.76,4,1,0,0.00
2014-7-14,94.6,75.9,63.5,77.5,69.7,57.6,95,82,55,29.86,29.71,7,2,0,0.95
2014-7-15,78.4,66.4,53.6,58.9,55.0,49.6,87,68,47,29.92,29.84,8,3,0,0.00
2014-7-16,86.2,68.6,52.0,60.8,56.0,49.9,94,68,38,29.95,29.88,7,2,0,0.00
2014-7-17,91.8,72.4,54.9,65.1,57.5,52.9,94,64,32,30.00,29.92,5,1,0,0.00
2014-7-18,86.7,72.1,59.7,62.8,57.5,55.7,89,63,38,30.02,29.90,7,2,0,0.00
2014-7-19,90.0,73.6,57.0,66.8,59.6,52.9,91,65,37,29.95,29.86,6,1,0,0.01
2014-7-20,95.2,76.7,58.5,68.3,62.2,56.8,94,65,35,29.94,29.85,5,1,0,0.00
2014-7-21,96.1,80.8,64.4,72.2,66.7,60.5,88,64,43,29.98,29.88,6,2,0,0.00
2014-7-22,97.2,82.2,65.8,77.1,70.7,63.7,93,70,48,29.97,29.83,5,1,0,0.00
2014-7-23,86.5,78.2,64.0,75.2,68.9,57.3,89,74,54,29.98,29.85,10,3,0,0.00
2014-7-24,86.9,71.3,54.7,62.2,55.9,50.8,88,62,34,30.02,29.89,8,2,0,0.00
2014-7-25,82.2,69.2,60.8,70.3,61.5,54.4,92,77,59,30.01,29.72,6,2,0,0.13
2014-7-26,102.4,80.4,68.4,80.3,71.6,62.5,94,76,49,29.77,29.64,5,2,0,0.04
2014-7-27,94.6,80.6,67.8,78.4,68.9,58.3,95,71,37,29.85,29.66,13,4,0,0.00
2014-7-28,82.4,70.0,56.7,65.4,59.4,52.9,87,70,51,29.99,29.85,8,2,0,0.00
2014-7-29,88.9,69.2,52.0,63.0,57.1,50.3,94,69,37,30.02,29.92,5,1,0,0.00
2014-7-30,91.8,75.2,57.6,63.8,59.6,54.5,90,63,33,29.96,29.89,4,1,0,0.00
2014-7-31,95.0,76.7,57.6,66.7,60.8,55.9,95,64,30,29.97,29.88,6,1,0,0.00
2014-8-1,94.8,73.4,61.9,72.6,64.1,58.9,95,75,38,29.96,29.91,5,1,0,0.01
2014-8-2,93.0,75.1,57.7,68.7,62.9,56.3,96,70,40,30.04,29.94,5,1,0,0.00
2014-8-3,96.3,77.1,59.5,70.4,62.7,58.1,95,66,30,30.06,29.91,4,1,0,0.00
2014-8-4,98.6,80.9,63.5,70.0,64.5,60.9,92,61,35,30.01,29.86,5,2,0,0.00
2014-8-5,93.2,78.7,68.4,76.2,69.6,62.1,94,75,55,29.91,29.84,4,1,0,0.32
2014-8-6,96.3,78.1,66.2,74.1,68.3,64.4,95,74,43,29.95,29.82,8,2,0,0.01
2014-8-7,73.6,70.6,68.9,71.4,68.7,66.0,96,94,80,29.87,29.70,9,5,0,3.62
2014-8-8,85.8,73.5,69.8,77.4,70.9,68.6,96,92,73,29.82,29.74,8,3,0,0.37
2014-8-9,81.3,72.4,68.0,74.1,69.6,67.1,97,91,79,29.88,29.82,5,2,0,0.00
2014-8-10,86.4,74.7,68.4,75.4,70.4,67.0,96,87,70,29.89,29.79,4,1,0,0.00
2014-8-11,89.8,75.9,66.6,74.4,68.7,62.0,97,80,52,29.83,29.73,10,2,0,0.00
2014-8-12,83.8,71.0,59.4,65.1,59.9,56.3,95,71,40,29.91,29.79,10,3,0,0.00
2014-8-13,88.9,71.6,56.1,64.3,58.4,55.0,97,69,33,30.00,29.90,6,1,0,0.00
2014-8-14,93.0,73.8,56.8,69.1,62.4,54.8,96,72,39,29.98,29.85,4,1,0,0.00
2014-8-15,88.7,74.7,62.4,72.8,67.6,60.9,96,81,55,29.93,29.80,7,2,0,0.06
2014-8-16,79.0,71.8,69.3,71.1,69.4,67.5,96,92,75,29.83,29.68,6,2,0,1.30
2014-8-17,85.1,74.1,70.9,77.0,71.8,69.3,97,93,75,29.77,29.66,7,2,0,0.49
2014-8-18,95.5,78.7,69.3,77.2,71.4,68.1,97,81,47,29.78,29.66,5,1,0,0.00
2014-8-19,94.8,77.8,67.5,78.2,72.1,66.6,98,84,58,29.75,29.63,5,1,0,0.03
2014-8-20,89.8,77.4,69.6,80.1,72.7,68.7,98,86,65,29.85,29.69,9,2,0,0.06
2014-8-21,103.8,84.8,69.8,81.3,75.7,68.9,97,77,47,29.87,29.75,5,1,0,0.00
2014-8-22,99.9,85.7,72.9,82.1,76.1,69.2,90,75,55,29.88,29.75,7,1,0,0.00
2014-8-23,106.2,87.2,75.2,82.4,77.5,74.3,97,76,43,29.83,29.71,5,1,0,0.00
2014-8-24,104.4,88.1,74.3,83.0,76.9,70.7,96,72,41,29.83,29.75,6,3,0,0.00
2014-8-25,107.4,90.2,77.2,82.5,77.5,73.6,95,70,35,29.91,29.81,6,2,0,0.00
2014-8-26,105.8,87.1,74.5,81.4,75.6,66.8,96,72,44,30.01,29.87,10,2,0,0.00
2014-8-27,101.3,80.5,70.3,80.3,72.8,66.3,98,80,47,30.01,29.88,6,2,0,0.66
2014-8-28,100.0,79.9,68.5,79.3,72.4,67.5,97,81,51,29.93,29.79,9,2,0,0.11
2014-8-29,95.4,81.8,72.3,78.7,72.3,67.8,95,75,45,29.84,29.68,8,2,0,0.11
2014-8-30,95.4,79.0,71.1,78.7,71.7,66.7,95,80,55,29.82,29.72,9,1,0,0.04
2014-8-31,97.0,80.8,70.2,78.1,73.0,69.3,97,79,50,29.84,29.71,7,2,0,0.01
2014-9-1,91.6,78.3,68.2,72.5,70.0,66.5,98,78,49,29.79,29.60,8,2,0,2.07
2014-9-2,87.6,73.9,66.4,76.3,70.2,65.5,99,89,58,29.89,29.74,6,1,0,1.29
2014-9-3,93.6,78.0,63.0,75.2,69.6,62.1,99,78,49,29.93,29.80,7,2,0,0.00
2014-9-4,104.2,83.7,71.1,80.5,72.3,66.4,88,70,47,29.88,29.80,7,2,0,0.00
2014-9-5,103.5,82.3,66.7,79.7,72.9,65.4,97,77,45,30.02,29.78,9,2,0,0.18
2014-9-6,81.1,65.7,56.7,65.4,60.3,55.3,97,85,50,30.08,29.94,6,2,0,0.04
2014-9-7,84.7,66.2,51.4,60.1,54.3,50.6,98,71,36,30.10,29.95,7,2,0,0.00
2014-9-8,89.1,70.0,52.2,64.2,57.8,51.4,98,69,37,29.99,29.84,8,1,0,0.00
2014-9-9,87.4,72.1,64.4,72.9,65.5,56.2,98,81,58,29.87,29.65,11,3,0,2.20
2014-9-10,87.4,74.5,65.1,80.3,72.4,63.9,99,93,78,29.76,29.52,8,2,0,1.19
2014-9-11,64.6,59.0,53.4,63.4,56.0,49.9,96,90,84,30.13,29.76,8,3,0,0.01
2014-9-12,61.0,53.9,49.8,55.1,50.6,47.6,94,89,80,30.20,30.09,10,3,0,0.00
2014-9-13,71.8,54.0,40.5,48.6,44.1,39.5,96,74,36,30.29,30.15,10,2,0,0.00
2014-9-14,79.3,58.5,41.0,54.8,46.6,39.9,97,70,33,30.20,30.04,5,1,0,0.00
2014-9-15,78.1,63.1,52.3,66.2,57.9,48.9,96,84,64,30.04,29.91,13,2,0,0.03
2014-9-16,72.9,59.4,49.1,58.0,54.3,48.3,97,85,52,30.11,29.95,5,1,0,0.00
2014-9-17,65.7,57.3,47.8,60.4,54.5,47.0,99,91,80,29.96,29.81,8,2,0,0.00
2014-9-18,77.9,64.7,55.8,60.6,56.0,53.4,95,76,45,29.96,29.85,8,2,0,0.00
2014-9-19,84.7,67.1,50.7,62.8,57.4,49.6,97,74,45,29.99,29.85,7,2,0,0.00
2014-9-20,90.3,73.2,57.9,74.8,66.4,56.8,97,81,58,29.91,29.75,4,1,0,0.00
2014-9-21,80.6,69.4,54.3,69.6,56.9,49.2,96,68,37,30.03,29.75,12,4,0,0.00
2014-9-22,83.3,62.2,47.7,56.4,49.9,43.2,97,70,26,30.19,30.03,5,1,0,0.00
2014-9-23,81.9,62.2,46.0,55.8,50.4,45.2,97,71,35,30.22,30.10,7,1,0,0.00
2014-9-24,86.7,65.8,48.6,57.4,52.7,46.8,96,67,31,30.20,30.08,8,1,0,0.00
2014-9-25,89.8,70.1,54.5,64.9,58.5,52.5,95,71,37,30.15,30.02,5,1,0,0.00
2014-9-26,91.6,73.2,59.2,65.3,59.9,55.4,89,67,37,30.10,30.00,6,1,0,0.00
2014-9-27,91.2,70.1,56.8,65.6,58.8,53.9,96,73,31,30.08,29.95,4,1,0,0.00
2014-9-28,95.2,71.2,53.4,64.1,57.7,52.5,97,70,27,30.02,29.90,3,0,0,0.00
2014-9-29,94.1,71.1,55.0,66.9,59.4,54.2,97,72,35,29.94,29.81,5,1,0,0.00
2014-9-30,91.2,71.7,55.9,65.9,59.9,55.1,98,71,38,29.84,29.72,6,2,0,0.00
2014-10-1,91.4,72.7,57.7,67.0,61.5,54.5,95,70,42,29.79,29.64,8,4,0,0.00
2014-10-2,78.1,67.7,64.2,72.5,66.0,63.3,98,94,81,29.76,29.50,7,3,0,0.00
2014-10-3,64.4,54.8,41.5,63.5,51.2,37.3,97,88,74,29.90,29.43,13,4,0,0.00
2014-10-4,57.9,45.8,36.9,39.1,35.2,30.8,91,69,39,29.86,29.76,12,4,0,0.00
2014-10-5,78.3,54.6,36.9,50.9,43.9,34.2,96,72,34,29.75,29.51,7,1,0,0.00
2014-10-6,73.6,59.7,49.3,54.9,49.8,42.2,96,74,36,29.66,29.52,10,2,0,0.00
2014-10-7,79.5,62.4,48.4,63.9,52.9,43.2,95,75,32,29.83,29.56,10,2,0,0.00
2014-10-8,80.8,61.1,45.5,54.4,48.9,43.3,97,70,29,30.00,29.82,6,1,0,0.00
2014-10-9,59.9,56.6,52.7,57.6,53.4,47.3,96,89,65,29.98,29.88,9,3,0,0.00
2014-10-10,56.1,51.6,48.7,54.1,50.2,47.3,97,95,90,30.00,29.90,9,2,0,0.00
2014-10-11,59.2,49.7,42.4,50.6,46.3,41.6,97,89,69,30.08,29.96,7,2,0,0.00
2014-10-12,60.3,54.1,42.6,60.0,53.2,41.8,99,97,94,29.96,29.70,7,3,0,0.00
2014-10-13,67.3,63.6,60.1,66.7,62.7,59.8,99,97,95,29.72,29.33,14,4,0,0.00
2014-10-14,60.8,55.6,52.0,59.7,54.9,51.7,99,98,96,29.56,29.27,13,3,0,0.00
2014-10-15,56.7,52.7,50.0,54.4,52.0,49.7,99,98,89,29.75,29.56,8,3,0,0.00
2014-10-16,79.3,59.4,45.1,58.5,51.4,44.8,99,78,39,29.79,29.60,7,1,0,0.00
2014-10-17,71.2,57.9,47.7,56.0,49.6,46.1,98,76,48,29.85,29.58,19,3,0,0.00
2014-10-18,64.6,52.4,43.5,50.2,45.5,42.3,98,79,52,30.10,29.84,8,2,0,0.00
2014-10-19,68.7,52.3,38.3,51.2,45.5,38.0,99,81,47,30.14,29.87,4,1,0,0.00
2014-10-20,76.5,59.7,46.6,57.0,48.9,44.7,94,71,36,29.89,29.79,9,2,0,0.00
2014-10-21,71.8,55.0,43.2,53.0,45.1,39.5,99,73,39,30.08,29.87,8,2,0,0.00
2014-10-22,69.3,51.6,35.8,49.0,42.1,35.3,99,73,40,30.21,30.08,8,2,0,0.00
2014-10-23,67.6,53.1,38.8,50.5,44.8,38.0,98,76,47,30.10,29.96,6,1,0,0.00
2014-10-24,79.7,59.9,47.5,61.9,52.5,46.5,98,79,42,30.00,29.85,5,1,0,0.00
2014-10-25,86.9,65.4,52.5,68.1,56.2,46.2,99,76,37,29.91,29.84,4,1,0,0.00
2014-10-26,79.2,63.2,44.1,62.3,46.9,36.2,96,60,28,29.92,29.64,9,2,0,0.00
2014-10-27,85.1,71.1,62.1,64.6,60.1,53.1,98,71,45,29.64,29.49,6,2,0,0.00
2014-10-28,70.3,59.3,44.8,62.9,46.8,33.7,98,68,30,29.97,29.62,12,2,0,0.00
2014-10-29,63.0,47.3,35.8,41.6,37.6,35.0,98,73,38,30.08,29.97,8,2,0,0.00
2014-10-30,57.9,46.1,34.9,48.2,41.4,34.4,99,85,56,30.04,29.86,8,1,0,0.00
2014-10-31,48.7,42.2,32.0,44.5,30.9,20.8,98,67,36,30.27,29.92,15,4,0,0.00
2014-11-1,55.2,37.2,27.0,29.1,24.8,20.1,90,63,35,30.35,30.25,10,2,0,0.00
2014-11-2,51.8,40.1,26.8,34.4,29.0,25.6,95,67,39,30.32,30.07,10,3,0,0.00
2014-11-3,74.7,58.2,43.7,44.4,36.6,29.5,62,46,32,30.10,29.93,7,3,0,0.00
2014-11-4,58.8,50.8,42.1,53.4,47.7,39.9,98,91,51,30.08,29.92,7,1,0,0.00
2014-11-5,66.7,48.7,39.4,50.2,42.7,38.5,99,82,46,30.09,29.86,5,1,0,0.00
2014-11-6,50.7,43.8,30.6,42.0,34.1,27.8,89,70,49,30.17,29.85,14,4,0,0.00
2014-11-7,57.2,41.5,26.2,38.3,31.3,25.5,98,70,41,30.16,29.72,8,2,0,0.00
2014-11-8,54.5,44.3,31.8,40.5,33.2,28.1,87,66,43,29.95,29.68,11,3,0,0.00
2014-11-9,62.4,45.6,29.5,37.7,33.3,28.0,97,66,35,29.92,29.68,6,2,0,0.00
2014-11-10,71.1,56.6,43.3,47.5,42.3,35.3,84,61,35,29.69,29.37,10,4,0,0.00
2014-11-11,59.0,39.4,30.7,46.8,31.2,22.1,87,72,63,30.14,29.50,11,5,0,0.00
2014-11-12,36.5,29.3,23.7,22.7,17.5,11.6,74,61,47,30.29,30.13,9,4,0,0.00
2014-11-13,30.2,25.2,19.4,21.4,15.4,10.8,85,67,52,30.33,30.28,9,4,0,0.00
2014-11-14,39.2,24.8,15.1,19.6,15.5,11.1,86,69,42,30.35,30.25,8,2,0,0.00
2014-11-15,40.1,27.9,17.2,27.2,20.4,14.5,95,76,42,30.28,30.06,7,2,0,0.00
2014-11-16,34.2,29.9,22.3,31.3,28.2,20.3,96,94,87,30.06,29.87,6,1,0,0.00
2014-11-17,26.8,19.7,16.0,18.9,12.4,5.6,90,73,61,30.08,29.89,12,5,0,0.00
2014-11-18,29.1,19.8,11.5,13.6,9.1,4.4,76,63,47,30.19,29.95,9,4,0,0.00
2014-11-19,43.9,31.6,20.5,28.0,20.2,11.6,75,63,50,30.06,29.77,14,4,0,0.00
2014-11-20,41.5,26.0,17.1,21.6,17.4,12.4,88,71,44,30.23,30.06,8,2,0,0.00
2014-11-21,40.6,31.7,19.9,35.0,19.5,12.0,86,61,46,30.32,30.07,11,5,0,0.00
2014-11-22,57.6,48.9,38.8,50.8,44.6,35.0,98,86,70,30.07,29.72,6,3,0,0.00
2014-11-23,53.6,52.1,50.7,52.6,50.8,46.7,99,95,85,29.72,29.05,9,4,0,0.00
2014-11-24,53.2,38.5,31.6,52.9,34.5,26.4,99,86,73,29.86,29.02,16,5,0,0.00
2014-11-25,41.5,31.4,24.8,28.4,24.5,21.0,88,76,52,30.08,29.85,9,3,0,0.00
2014-11-26,34.2,30.8,26.8,31.7,28.5,23.7,98,91,82,30.09,29.84,9,3,0,0.00
2014-11-27,36.5,27.8,20.5,29.0,23.7,17.3,97,85,63,30.36,30.10,8,3,0,0.00
2014-11-28,49.8,35.3,21.4,38.1,29.8,17.3,91,81,64,30.28,29.74,14,5,0,0.00
2014-11-29,64.0,50.4,38.8,52.8,45.3,35.3,92,83,67,29.73,29.52,7,4,0,0.00
2014-11-30,70.2,48.2,27.0,59.5,43.8,20.8,93,85,68,30.21,29.59,10,4,0,0.00
2014-12-1,34.0,26.9,23.0,20.4,16.8,13.3,85,66,48,30.49,30.21,11,5,0,0.00
2014-12-2,35.2,30.2,25.2,29.0,23.0,14.8,83,74,64,30.33,30.01,6,2,0,0.00
2014-12-3,49.3,34.7,26.6,34.0,26.8,21.7,98,75,42,30.24,30.05,6,1,0,0.00
2014-12-4,38.7,34.9,31.6,38.4,30.9,20.8,99,86,61,30.25,30.05,8,4,0,0.00
2014-12-5,45.3,41.5,38.7,45.0,41.2,38.4,99,99,99,30.06,29.90,9,3,0,0.00
2014-12-6,40.1,35.9,27.7,39.8,34.9,26.7,99,96,95,30.49,30.04,11,4,0,0.00
2014-12-7,42.1,33.8,27.1,36.1,31.8,26.6,98,93,78,30.47,30.12,7,3,0,0.00
2014-12-8,44.8,39.2,35.4,42.9,37.6,34.0,99,94,84,30.12,29.98,8,2,0,0.00
2014-12-9,37.8,34.1,32.0,34.0,31.0,28.2,94,88,82,30.28,30.06,8,4,0,0.00
2014-12-10,35.8,33.2,31.5,32.3,30.2,28.3,95,89,80,30.28,30.16,5,2,0,0.00
2014-12-11,40.6,31.3,25.3,30.9,27.8,23.8,96,87,67,30.24,30.14,5,1,0,0.00
2014-12-12,49.3,40.3,31.6,40.9,36.1,29.7,94,85,70,30.28,30.15,5,2,0,0.00
2014-12-13,56.8,45.3,33.1,48.2,42.3,32.6,99,90,73,30.17,30.01,5,1,0,0.00
2014-12-14,59.5,50.7,46.2,54.3,49.3,45.9,99,95,83,30.01,29.83,9,4,0,0.00
2014-12-15,49.8,47.9,42.8,49.3,47.4,41.7,99,98,93,29.83,29.51,14,6,0,0.00
2014-12-16,42.4,35.3,29.8,41.3,33.5,26.3,99,93,86,30.17,29.62,14,5,0,0.00
2014-12-17,41.0,31.0,27.5,30.2,26.5,24.6,91,84,65,30.22,30.14,7,3,0,0.00
2014-12-18,36.5,30.6,27.1,28.7,26.0,23.8,91,83,70,30.19,30.09,6,2,0,0.00
2014-12-19,38.7,32.9,27.3,31.5,29.2,26.1,96,86,75,30.21,30.12,5,2,0,0.00
2014-12-20,48.2,36.8,32.5,36.3,32.1,28.4,89,83,59,30.16,30.09,5,2,0,0.00
2014-12-21,42.3,39.6,37.8,34.5,33.2,31.9,84,78,71,30.10,29.79,12,5,0,0.00
2014-12-22,48.6,43.4,38.1,48.3,41.4,32.2,99,93,73,29.79,29.37,10,4,0,0.00
2014-12-23,50.4,43.3,35.2,47.5,41.7,34.9,99,94,78,29.64,29.41,6,1,0,0.00
2014-12-24,40.5,37.7,36.1,39.2,36.7,32.8,98,96,87,29.71,29.50,8,3,0,0.00
2014-12-25,51.4,41.4,32.7,39.7,35.7,31.9,98,81,57,29.91,29.72,10,4,0,0.00
2014-12-26,58.5,47.7,37.9,46.2,41.3,34.9,98,79,63,29.97,29.86,8,4,0,0.00
2014-12-27,47.3,40.5,32.2,47.0,40.0,30.4,99,98,93,30.09,29.90,7,3,0,0.00
2014-12-28,40.3,29.9,21.4,30.7,27.1,20.9,98,89,64,30.13,30.06,6,2,0,0.00
2014-12-29,40.3,28.3,17.8,29.9,22.5,17.1,99,81,50,30.35,30.11,9,2,0,0.00
2014-12-30,29.5,23.7,15.4,26.4,15.5,4.0,90,71,57,30.62,30.35,8,4,0,0.00
2014-12-31,28.0,18.7,9.1,11.6,6.2,1.8,76,59,39,30.60,30.22,8,2,0,0.00
2015-1-1,37.2,29.2,21.2,25.4,18.0,11.9,72,63,46,30.22,30.04,10,3,0,0.00
2015-1-2,39.2,35.2,32.0,34.9,30.6,25.4,99,84,67,30.21,29.95,6,2,0,0.00